Weather History for Sussex, NJ

Change the Weather History Date:

Monday, April 28, 2014

  Actual Average Record
Temperature  
Mean Temperature 49 °F -  
Max Temperature 64 °F 64 °F 91 °F (1990)
Min Temperature 34 °F 37 °F 26 °F (1968)
Degree Days  
Heating Degree Days 16    
Moisture  
Dew Point 34 °F    
Average Humidity 50    
Maximum Humidity 86    
Minimum Humidity 29    
Precipitation  
Precipitation 0.00 in - - ()
Sea Level Pressure  
Sea Level Pressure 30.08 in    
Wind  
Wind Speed 2 mph (ESE)    
Max Wind Speed 9 mph    
Max Gust Speed -    
Visibility 10 miles    
Events      
Averages and records for this station are not official NWS values.
T = Trace of Precipitation, MM = Missing Value Source: NWS Daily Summary

Daily Weather History Graph

Daily Weather History Graph

Search for Another Location

Airport:

Trip Planner

Search our weather history database for the weather conditions in past years. The results will help you decide how hot, cold, wet, or windy it might be!

Date:

Astronomy

Apr. 28, 2014 Rise Set
Actual Time 6:00 AM EDT 7:52 PM EDT
Civil Twilight 5:30 AM EDT 8:22 PM EDT
Nautical Twilight 4:54 AM EDT 8:58 PM EDT
Astronomical Twilight 4:15 AM EDT 9:37 PM EDT
Moon 5:37 AM EDT (4/28) 7:27 PM EDT (4/28)
Length of Visible Light 14h 51m
Length of Day
13h 52m
Waning Crescent, 0% of the Moon is Illuminated
Apr 28
Waning Crescent
Apr 29
New
May 6
First Quarter
May 14
Full
May 21
Last Quarter

Hourly Weather History & Observations

Time (EDT) Temp. Windchill Dew Point Humidity Pressure Visibility Wind Dir Wind Speed Gust Speed Precip Events Conditions
1:53 AM 44.1 °F - 32.0 °F 63% 30.12 in 10.0 mi Calm Calm - N/A   Clear
4:53 AM 34.0 °F - 30.0 °F 85% 30.10 in 10.0 mi Calm Calm - N/A   Clear
6:53 AM 36.0 °F 33.3 °F 32.0 °F 86% 30.14 in 10.0 mi SSW 3.5 mph - N/A   Clear
7:53 AM 43.0 °F - 35.1 °F 74% 30.14 in 10.0 mi Calm Calm - N/A   Clear
8:53 AM 51.1 °F - 35.1 °F 54% 30.12 in 10.0 mi Calm Calm - N/A   Clear
9:53 AM 54.0 °F - 32.0 °F 43% 30.12 in 10.0 mi WNW 6.9 mph - N/A   Clear
10:53 AM 55.9 °F - 32.0 °F 40% 30.11 in 10.0 mi Variable 3.5 mph - N/A   Clear
11:53 AM 59.0 °F - 33.1 °F 38% 30.08 in 10.0 mi East 8.1 mph - N/A   Clear
12:53 PM 61.0 °F - 34.0 °F 36% 30.05 in 10.0 mi NE 9.2 mph - N/A   Clear
1:53 PM 62.1 °F - 33.1 °F 34% 30.04 in 10.0 mi East 6.9 mph - N/A   Clear
2:53 PM 63.0 °F - 33.1 °F 33% 30.02 in 10.0 mi North - - N/A   Clear
3:53 PM 64.0 °F - 30.9 °F 29% 30.01 in 10.0 mi SSE 5.8 mph - N/A   Clear
5:53 PM 63.0 °F - 33.1 °F 33% 30.03 in 10.0 mi East 4.6 mph - N/A   Clear
6:53 PM 62.1 °F - 30.9 °F 31% 30.03 in 10.0 mi ENE 4.6 mph - N/A   Clear
7:53 PM 59.0 °F - 33.1 °F 38% 30.04 in 10.0 mi Calm Calm - N/A   Clear
8:53 PM 55.9 °F - 35.1 °F 45% 30.06 in 10.0 mi Calm Calm - N/A   Clear
9:53 PM 54.0 °F - 39.9 °F 59% 30.08 in 10.0 mi WSW 3.5 mph - N/A   Clear
10:53 PM 52.0 °F - 39.0 °F 61% 30.09 in 10.0 mi Calm Calm - N/A   Clear
11:53 PM 50.0 °F - 37.9 °F 63% 30.09 in 10.0 mi Calm Calm - N/A   Clear